FW3754 Weather Reports


time (UTC)temp
F
wind
direction
speed
knots
gust
knots
rain 1hr
in
rain 24hr
in
rain mn
in
humidity
%
barometer
mb
20210723144751 89 264 2.6 0.0 0.00 0.00 0.00 70 1019.2
20210723143113 89 296 2.6 0.0 0.00 0.00 0.00 73 1019.3
20210723141600 88 184 1.7 0.0 0.00 0.00 0.00 73 1019.4
20210723140101 87 198 1.7 0.0 0.00 0.00 0.00 75 1019.4
20210723134549 86 257 1.7 0.0 0.00 0.00 0.00 78 1019.5
20210723133037 85 302 0.9 0.0 0.00 0.00 0.00 78 1019.7
20210723131531 85 313 1.7 0.0 0.00 0.00 0.00 81 1019.7
20210723130018 85 13 2.6 0.0 0.00 0.00 0.00 81 1019.8
20210723124539 84 342 2.6 0.0 0.00 0.00 0.00 83 1019.7
20210723123054 83 346 2.6 0.0 0.00 0.00 0.00 84 1019.6
20210723121550 83 308 2.6 0.0 0.00 0.00 0.00 85 1019.5
20210723120039 82 306 2.6 0.0 0.00 0.00 0.00 86 1019.2
20210723114542 82 217 1.7 0.0 0.00 0.00 0.00 87 1019.2
20210723113019 81 217 0.0 0.0 0.00 0.00 0.00 87 1019.0
20210723111530 81 217 0.9 0.0 0.00 0.00 0.00 87 1018.9
20210723110038 81 194 0.0 0.0 0.00 0.00 0.00 87 1018.8
20210723104518 81 194 0.9 0.0 0.00 0.00 0.00 87 1018.7
20210723103019 81 190 0.0 0.0 0.00 0.00 0.00 87 1018.6
20210723101513 81 190 0.9 0.0 0.00 0.00 0.00 87 1018.5
20210723100057 81 190 0.0 0.0 0.00 0.00 0.00 87 1018.4
20210723094520 81 190 0.0 0.0 0.00 0.00 0.00 87 1018.2
20210723093040 81 190 0.0 0.0 0.00 0.00 0.00 86 1018.2
20210723091514 82 190 0.0 0.0 0.00 0.00 0.00 85 1018.2
20210723090024 82 190 0.0 0.0 0.00 0.00 0.00 85 1018.1
20210723084520 82 189 0.0 0.0 0.00 0.00 0.00 85 1018.0
20210723083005 82 189 0.0 0.0 0.00 0.00 0.00 85 1017.9
20210723081504 82 189 0.0 0.0 0.00 0.00 0.00 84 1017.9
20210723080008 82 189 0.0 0.0 0.00 0.00 0.00 85 1017.9
20210723074502 82 189 0.0 0.0 0.00 0.00 0.00 84 1018.0
20210723073134 82 189 0.0 0.0 0.00 0.00 0.00 84 1018.1
20210723071733 82 189 0.0 0.0 0.00 0.00 0.00 83 1018.2
20210723070215 82 190 0.0 0.0 0.00 0.00 0.00 83 1018.5
20210723064711 83 190 0.0 0.0 0.00 0.00 0.00 82 1018.7
20210723063154 83 190 0.0 0.0 0.00 0.00 0.00 82 1018.7
20210723061703 83 189 0.9 0.0 0.00 0.00 0.00 82 1018.9
20210723060343 83 193 1.7 0.0 0.00 0.00 0.00 81 1018.9
20210723054651 83 150 0.9 0.0 0.00 0.00 0.00 80 1018.9
20210723053219 83 146 1.7 0.0 0.00 0.00 0.00 80 1019.1
20210723051600 83 161 0.0 0.0 0.00 0.00 0.00 81 1019.3
20210723050247 84 161 0.0 0.0 0.00 0.00 0.00 81 1019.4
20210723044648 84 159 0.9 0.0 0.00 0.00 0.00 80 1019.6
20210723043124 84 183 1.7 0.0 0.00 0.00 0.00 81 1019.6
20210723041629 84 121 1.7 0.0 0.00 0.00 0.00 81 1019.7
20210723040059 84 132 1.7 0.0 0.00 0.00 0.00 81 1019.9
20210723034613 85 173 1.7 0.0 0.00 0.00 0.01 80 1020.0
20210723033051 85 166 0.9 0.0 0.00 0.00 0.01 79 1020.3
20210723031605 85 134 1.7 0.0 0.00 0.00 0.01 79 1020.4
20210723030123 85 139 2.6 0.0 0.00 0.00 0.01 79 1020.4
20210723024551 85 123 2.6 0.0 0.00 0.00 0.01 78 1020.5
20210723023125 86 130 3.5 0.0 0.00 0.00 0.01 78 1020.4
20210723021700 86 142 3.5 0.0 0.00 0.00 0.01 78 1020.3
20210723020053 86 133 1.7 0.0 0.00 0.00 0.01 77 1020.2
20210723014643 86 137 4.3 0.0 0.00 0.00 0.01 77 1019.5
20210723013045 86 135 4.3 0.0 0.00 0.00 0.01 76 1019.6
20210723011602 86 121 3.5 0.0 0.00 0.00 0.01 75 1019.6
20210723010106 87 142 3.5 0.0 0.00 0.00 0.01 75 1019.5
20210723004540 87 142 4.3 0.0 0.00 0.00 0.01 74 1019.4
20210723003142 88 142 4.3 0.0 0.00 0.00 0.01 74 1019.6
20210723001604 88 141 3.5 0.0 0.00 0.00 0.01 73 1019.4
20210723000120 89 125 5.2 0.0 0.00 0.00 0.01 71 1019.0
20210722234601 90 102 4.3 0.0 0.00 0.00 0.01 69 1018.8
20210722233040 92 123 4.3 0.0 0.00 0.00 0.01 66 1018.9
20210722231535 93 134 5.2 0.0 0.00 0.00 0.01 64 1018.8
20210722230118 94 130 5.2 0.0 0.00 0.00 0.01 62 1018.5
20210722224534 95 123 5.2 0.0 0.00 0.00 0.01 59 1018.5
20210722223054 96 131 5.2 0.0 0.00 0.00 0.01 55 1018.4
20210722221541 97 142 4.3 0.0 0.00 0.00 0.01 55 1018.5
20210722220054 96 133 5.2 0.0 0.00 0.00 0.01 55 1018.4
20210722214635 99 140 5.2 0.0 0.00 0.00 0.01 51 1018.7
20210722213050 99 93 5.2 0.0 0.00 0.00 0.01 51 1018.5
20210722211552 100 133 5.2 0.0 0.00 0.00 0.01 51 1018.5
20210722210101 101 123 5.2 0.0 0.00 0.00 0.01 49 1018.5
20210722204602 101 136 5.2 0.0 0.00 0.00 0.01 48 1018.5
20210722203051 100 116 5.2 0.0 0.00 0.00 0.01 49 1018.4
20210722201528 101 125 6.1 0.0 0.00 0.00 0.01 49 1018.6
20210722200105 100 134 4.3 0.0 0.00 0.00 0.01 50 1018.8
20210722194515 101 115 5.2 0.0 0.00 0.00 0.01 49 1018.9
20210722193033 101 113 6.1 0.0 0.00 0.00 0.01 50 1019.2
20210722191516 99 115 4.3 0.0 0.00 0.00 0.01 52 1019.2
20210722190033 98 103 3.5 0.0 0.00 0.00 0.01 52 1019.4
20210722184538 101 114 4.3 0.0 0.00 0.00 0.01 49 1019.6
20210722183017 100 128 6.1 0.0 0.00 0.00 0.01 49 1019.8
20210722181548 100 139 5.2 0.0 0.00 0.00 0.01 50 1019.9
20210722180007 100 126 4.3 0.0 0.00 0.00 0.01 50 1019.8
20210722174505 97 119 1.7 0.0 0.00 0.00 0.01 56 1019.9
20210722173210 96 18 1.7 0.0 0.00 0.00 0.01 51 1020.2
20210722171611 95 69 1.7 0.0 0.00 0.00 0.01 54 1020.3
20210722170218 93 328 2.6 0.0 0.00 0.00 0.01 57 1020.5
20210722164608 93 304 2.6 0.0 0.00 0.00 0.01 57 1020.6
20210722163159 95 291 1.7 0.0 0.00 0.00 0.01 57 1020.7
20210722161721 93 317 1.7 0.0 0.00 0.00 0.01 56 1020.8
20210722160147 92 346 2.6 0.0 0.00 0.00 0.01 56 1020.9
20210722154708 92 28 2.6 0.0 0.00 0.00 0.01 62 1020.9
20210722153112 91 10 1.7 0.0 0.00 0.00 0.01 62 1020.9
20210722151721 91 348 0.9 0.0 0.00 0.00 0.01 60 1020.9
20210722150117 90 324 1.7 0.0 0.00 0.00 0.01 63 1020.8